Change the Weather History Date:

Wednesday, November 23, 2011

  Actual Average Record
Temperature  
Mean Temperature 63 °F 61 °F  
Max Temperature 77 °F 73 °F 94 °F (1950)
Min Temperature 48 °F 49 °F 29 °F (1931)
Degree Days  
Heating Degree Days 2 5  
Month to date heating degree days 97 51  
Since 1 July heating degree days 97 55  
Cooling Degree Days 0 1  
Month to date cooling degree days 14 71  
Year to date cooling degree days 4147 4133  
Growing Degree Days 12 (Base 50)    
Moisture  
Dew Point 36 °F    
Average Humidity 44    
Maximum Humidity 66    
Minimum Humidity 21    
Precipitation  
Precipitation 0.00 in 0.03 in 2.75 in (1965)
Month to date precipitation 0.42 0.36  
Year to date precipitation 2.81 4.69  
Since 1 July precipitation 1.34 1.75  
Snow  
Snow 0.00 in - - ()
Month to date snowfall 0.0  
Year to date snowfall 0.0  
Since 1 July snowfall 0.0  
Snow Depth 0.00 in    
Sea Level Pressure  
Sea Level Pressure 29.99 in    
Wind  
Wind Speed 4 mph (NNW)    
Max Wind Speed 10 mph    
Max Gust Speed 32 mph    
Visibility 10 miles    
Events      
T = Trace of Precipitation, MM = Missing Value Source: NWS Daily Summary

Daily Weather History Graph

Daily Weather History Graph

Search for Another Location

Airport or City:

Trip Planner

Search our weather history database for the weather conditions in past years. The results will help you decide how hot, cold, wet, or windy it might be!

Date:

Astronomy

Nov. 23, 2011 Rise Set
Actual Time 6:25 AM PST 4:39 PM PST
Civil Twilight 5:58 AM PST 5:05 PM PST
Nautical Twilight 5:28 AM PST 5:36 PM PST
Astronomical Twilight 4:58 AM PST 6:06 PM PST
Moon 4:37 AM PST (11/23) 3:23 PM PST (11/23)
Length of Visible Light 11h 07m
Length of Day
10h 13m
Waning Crescent, 3% of the Moon is Illuminated
Nov 23
Waning Crescent
Nov 24
New
Dec 2
First Quarter
Dec 10
Full
Dec 17
Last Quarter

Hourly Weather History & Observations

Time (PST) Temp. Dew Point Humidity Pressure Visibility Wind Dir Wind Speed Gust Speed Precip Events Conditions
1:53 AM 51.1 °F 39.0 °F 63% 30.11 in 10.0 mi NNW 8.1 mph - N/A   Clear
2:53 AM 50.0 °F 37.0 °F 61% 30.09 in 10.0 mi NW 6.9 mph - N/A   Clear
4:53 AM 48.9 °F 37.0 °F 64% 30.08 in 10.0 mi NW 3.5 mph - N/A   Clear
5:53 AM 50.0 °F 36.0 °F 59% 30.09 in 10.0 mi NW 5.8 mph - N/A   Clear
6:53 AM 51.1 °F 35.1 °F 54% 30.09 in 10.0 mi WNW 3.5 mph - N/A   Clear
7:53 AM 55.0 °F 36.0 °F 49% 30.09 in 10.0 mi NW 3.5 mph - N/A   Clear
8:53 AM 61.0 °F 37.0 °F 41% 30.09 in 10.0 mi WSW 3.5 mph - N/A   Scattered Clouds
9:53 AM 68.0 °F 34.0 °F 28% 30.06 in 10.0 mi Calm Calm - N/A   Clear
10:53 AM 72.0 °F 33.1 °F 24% 30.03 in 10.0 mi Calm Calm - N/A   Clear
11:53 AM 73.4 °F 33.8 °F 23% 29.99 in 10.0 mi NE 4.6 mph - N/A   Clear
12:53 PM 75.0 °F 33.1 °F 22% 29.95 in 10.0 mi Variable 3.5 mph - N/A   Clear
1:53 PM 75.9 °F 32.0 °F 20% 29.92 in 10.0 mi East 3.5 mph - N/A   Clear
2:53 PM 75.0 °F 33.1 °F 22% 29.90 in 10.0 mi NE 3.5 mph - N/A   Scattered Clouds
3:53 PM 73.9 °F 34.0 °F 23% 29.90 in 10.0 mi NNE 5.8 mph - N/A   Clear
4:53 PM 68.0 °F 36.0 °F 31% 29.90 in 10.0 mi SW 3.5 mph - N/A   Clear
5:53 PM 66.9 °F 37.0 °F 33% 29.91 in 10.0 mi WNW 3.5 mph - N/A   Clear
6:53 PM 64.4 °F 35.6 °F 34% 29.91 in 10.0 mi NNW 4.6 mph - N/A   Clear
7:53 PM 61.0 °F 37.0 °F 41% 29.93 in 10.0 mi Calm Calm - N/A   Clear
8:53 PM 57.9 °F 37.0 °F 46% 29.93 in 10.0 mi NNW 3.5 mph - N/A   Clear
9:53 PM 55.0 °F 39.9 °F 57% 29.92 in 10.0 mi Calm Calm - N/A   Clear
10:53 PM 52.0 °F 41.0 °F 66% 29.91 in 10.0 mi Calm Calm - N/A   Clear
11:53 PM 55.9 °F 39.9 °F 55% 29.91 in 10.0 mi NNW 6.9 mph - N/A   Clear